Weather History for MDPP - September, 2013

Change the Weather History Date:

Tuesday, September 24, 2013

  Actual Average Record
Temperature  
Mean Temperature 84 °F -  
Max Temperature 93 °F 86 °F 98 °F (2012)
Min Temperature 76 °F 73 °F 71 °F (2012)
Cooling Degree Days 20    
Growing Degree Days 34 (Base 50)    
Moisture  
Dew Point 78 °F    
Average Humidity 76    
Maximum Humidity 100    
Minimum Humidity 59    
Precipitation  
Precipitation 0.00 in - - ()
Sea Level Pressure  
Sea Level Pressure 29.93 in    
Wind  
Wind Speed 6 mph ()    
Max Wind Speed 21 mph    
Max Gust Speed -    
Visibility 7.4 miles    
Events      
Averages and records for this station are not official NWS values.
T = Trace of Precipitation, MM = Missing Value Source: Averaged Metar Reports

Daily Weather History Graph

Daily Weather History Graph

Search for Another Location

Airport or City:

Trip Planner

Search our weather history database for the weather conditions in past years. The results will help you decide how hot, cold, wet, or windy it might be!

Date:

Astronomy

Sep. 24, 2013 Rise Set
Actual Time 6:31 AM AST 6:36 PM AST
Civil Twilight 6:09 AM AST 6:58 PM AST
Nautical Twilight 5:44 AM AST 7:23 PM AST
Astronomical Twilight 5:18 AM AST 7:49 PM AST
Moon 10:31 PM AST (9/24) 11:04 AM AST (9/24)
Length of Visible Light 12h 48m
Length of Day
12h 04m
Waning Gibbous, 73% of the Moon is Illuminated
Sep 24
Waning Gibbous
Sep 26
Last Quarter
Oct 4
New
Oct 11
First Quarter
Oct 18
Full

Hourly Weather History & Observations

Time (AST) Temp. Heat Index Dew Point Humidity Pressure Visibility Wind Dir Wind Speed Gust Speed Precip Events Conditions
2:00 AM 79 °F - 76 °F 89% 29.99 in 10 mi Calm Calm - -   Scattered Clouds
2:00 AM 78.8 °F - 77.0 °F 94% 29.98 in 6.2 mi Calm Calm - N/A   Partly Cloudy
3:00 AM 73.4 °F - 73.4 °F 100% 29.98 in 6.2 mi Calm Calm - N/A   Partly Cloudy
5:00 AM 77 °F - 74 °F 87% 29.95 in 10 mi Calm Calm - -   Scattered Clouds
5:00 AM 77.0 °F - 73.4 °F 89% 29.95 in 6.2 mi Calm Calm - N/A   Partly Cloudy
8:00 AM 91 °F - 80 °F 64% 29.92 in 10 mi East 17.9 mph - -   Scattered Clouds
8:00 AM 80.6 °F 86.2 °F 75.2 °F 84% 29.98 in 6.2 mi Calm Calm - N/A   Partly Cloudy
9:00 AM 86.0 °F 96.9 °F 77.0 °F 74% 29.98 in 6.2 mi ESE 9.2 mph - N/A   Partly Cloudy
10:00 AM 89.6 °F 102.2 °F 77.0 °F 66% 29.98 in 6.2 mi ESE 9.2 mph - N/A   Partly Cloudy
11:00 AM 90 °F - 78 °F 61% 29.98 in 10 mi East 6.7 mph - -   Scattered Clouds
11:00 AM 89.6 °F 104.7 °F 78.8 °F 70% 29.98 in 6.2 mi East 5.8 mph - N/A   Partly Cloudy
12:00 PM 95.0 °F 112.2 °F 78.8 °F 59% 29.95 in 6.2 mi East 11.5 mph - N/A   Scattered Clouds
1:00 PM 89.6 °F 108.2 °F 80.6 °F 75% 29.92 in 6.2 mi East 17.3 mph - N/A   Scattered Clouds
2:00 PM 91 °F - 80 °F 64% 29.92 in 10 mi East 17.9 mph - -   Scattered Clouds
2:00 PM 91.4 °F 111.0 °F 80.6 °F 71% 29.92 in 6.2 mi East 17.3 mph - N/A   Scattered Clouds
3:00 PM 93.2 °F 113.6 °F 80.6 °F 67% 29.89 in 6.2 mi ENE 20.7 mph - N/A   Scattered Clouds
4:00 PM 91.4 °F 111.0 °F 80.6 °F 71% 29.89 in 6.2 mi East 15.0 mph - N/A   Scattered Clouds
5:00 PM 90 °F - 79 °F 63% 29.89 in 10 mi East 17.9 mph - -   Partly Cloudy
5:00 PM 91.4 °F 107.2 °F 78.8 °F 66% 29.89 in 6.2 mi East 17.3 mph - N/A   Scattered Clouds
6:00 PM 87.8 °F 102.5 °F 78.8 °F 75% 29.89 in 6.2 mi ESE 8.1 mph - N/A   Scattered Clouds
7:00 PM 86.0 °F 99.3 °F 78.8 °F 79% 29.89 in 6.2 mi East 6.9 mph - N/A   Scattered Clouds
8:00 PM 84 °F - 78 °F 79% 29.91 in 10 mi ESE 11.2 mph - -   Scattered Clouds
8:00 PM 84.2 °F 96.1 °F 78.8 °F 84% 29.89 in 6.2 mi ESE 11.5 mph - N/A   Scattered Clouds
11:00 PM 81 °F - 78 °F 88% 29.92 in 10 mi Calm Calm - -   Scattered Clouds
11:00 PM 80.6 °F 87.1 °F 77.0 °F 89% 29.92 in 6.2 mi Calm Calm - N/A   Partly Cloudy